Find Orbcomm C7

NORAD ID: 25481 Int'l Des: 1998-053 Owner: ORBC Country: US Constellation: orbcomm operational
LEOCIRCULAR

リアルタイム位置

3D地球を読み込み中...

Orbcomm C7について

説明を読み込み中...

次回通過

Passes for default location (London). Set your location on the main map for personalized predictions.

高度履歴

Loading altitude history...

軌道要素

1 25481U 98053G 26106.74955293 .00000541 00000-0 21943-3 0 9996
2 25481 45.0051 267.1342 0000615 206.1270 153.9548 14.39023506441380
Epoch: Apr 16, 2026 • Age: 17 hours

現在のステータス

高度 763.7 km
速度 7.47 km/s
衛星直下点 -9.30°S, 109.95°W
打ち上げ日 Sep 23, 1998
運用期間 27.5 years
タイプ other

技術仕様

分類 Payload
質量 42.00 kg
乾燥質量 42.00 kg
総質量 42.00 kg
長さ 0.20 m
直径 1.00 m
スパン 4.30 m
形状 Cyl + 2 Pan + Ant
製造者 OSCG
バスタイプ Microstar
フェーズステータス Unknown Transfer Status
所有者/国 ORBC/US

Most Searched